Regional Weather Roundup
Issued by NWS New Orleans/Baton Rouge, LA

Home | Current Version | Previous Version | Graphics & Text | Print | Product List | Glossary On
Versions: 1 2 3 4 5 6 7 8 9 10 11 12 13 14 15 16 17 18 19 20 21 22 23 24 25 26 27 28 29 30 31 32 33 34 35 36 37 38 39 40 41 42 43 44 45 46 47 48 49 50
175
ASUS44 KLIX 271705
RWRLIX
NEW ORLEANS REGIONAL WEATHER ROUNDUP
NATIONAL WEATHER SERVICE NEW ORLEANS LA
1100 AM CST TUE JAN 27 2015

NOTE: "FAIR" INDICATES FEW OR NO CLOUDS BELOW 12,000 FEET WITH NO
      SIGNIFICANT WEATHER AND/OR OBSTRUCTIONS TO VISIBILITY.
      SKY/WX - SKY CONDITION AND SIGNIFICANT WEATHER.
      TMP - AIR TEMPERATURE.     DP    - DEWPOINT TEMPERATURE.
      RH  - RELATIVE HUMIDITY.   PRES  - PRESSURE.
      HI  - HEAT INDEX.          WCI   - WIND CHILL INDEX.

*  THESE STATIONS ARE NOT NWS OR FAA STATIONS AND ARE NOT UNDER
   NWS QUALITY CONTROL.

LAZ038-040-048-061>063-065>067-069-271800-
SOUTHEAST LOUISIANA

CITY           SKY/WX    TMP DP  RH WIND       PRES   REMARKS
N.O. AUDUBON     N/A     67  46  46 MISG        N/A
N.O. INTL ARPT MOSUNNY   62  41  46 N6        30.15S
N.O. LAKEFRONT SUNNY     57  46  66 W6        30.16R
N.O. DOWNTOWN*   N/A    N/A N/A N/A N6        30.15S
SLIDELL        SUNNY     66  40  38 N6        30.13F
BATON ROUGE    SUNNY     68  40  35 VRB7      30.15S
BOOTHVILLE     SUNNY     59  46  62 N12       30.15R
BELLE CHASSE   MOSUNNY   66  38  35 VRB7      30.14S
BOGALUSA*        N/A     65  40  38 N7        30.15S
GALLIANO*      SUNNY     67  46  46 MISG      30.15S
NEW ROADS*       N/A     64  41  43 CALM      30.16S
GONZALES*        N/A     65  42  42 CALM      30.15S
HAMMOND*       SUNNY     66  39  37 N6        30.16S
HOUMA*         SUNNY     64  45  48 NW7       30.15S
PORT FOURCHON* SUNNY     63  50  63 NW8       30.18S

$$

MSZ070-080>082-271800-
SOUTHERN MISSISSIPPI

CITY           SKY/WX    TMP DP  RH WIND       PRES   REMARKS
MCCOMB           N/A     64  38  38 MISG      30.14S
GULFPORT       SUNNY     63  39  41 NW6       30.12S
BILOXI         SUNNY     64  39  40 N12       30.11F
PASCAGOULA     SUNNY     63  39  41 NW8G20    30.11S
STENNIS ARPT*  SUNNY     63  36  36 NW7       30.13F

$$

COASTAL OBSERVATIONS
LAKE AND NEARSHORE STATIONS

STATION/POSITION TIME  TEMP    WIND        PRES    WAVE
                       AIR SEA DIR/SP/G            HT/PER
                 (UTC) (F)     (DEG/KT/KT) (MB)    (FT/S)
PASCAGOULA       1700   62     360/  8/ 11 1018.9
WAVELAND YACHT   1700   59     340/  6/  8 1019.3
GRAND ISLE       1700   59 56  340/ 10/ 11 1021.2
SOUTHWEST PASS   1700   59 46  350/ 13/ 14 1021.1
NEW CANAL        1700   55 52  320/  1/  2 1021.3
SHELL BEACH      1700   55 53  320/  7/  8 1020.7

OFFSHORE STATIONS

STATION/POSITION TIME  TEMP    WIND        PRES    WAVE
                       AIR SEA DIR/SP/G            HT/PER
                 (UTC) (F)     (DEG/KT/KT) (MB)    (FT/S)
64 S DAUPHIN ISL 1601   60 70  340/ 17/ 21 1020.4    5/ 7

$$




USA.gov is the U.S. government's official web portal to all federal, state and local government web resources and services.